Location: Argonnex
(45.9500°N, 6.1333°E)
Time: 09:18:28
(UTC+00:00)

Cosmos 2266 Rocket - Pass Details

Date: 03 October 2023
Orbit: 933 x 1008 km, 82.9° (Epoch: 10 December)

Event Time Altitude Azimuth Distance (km) Brightness Sun altitude
Exits shadow 01:45:15 41° 64° (ENE) 1,412 5.1 -38.0°
Drops below altitude 10° 01:50:14 10° 20° (NNE) 2,793 7.0 -37.3°
Sets 01:52:53 0° 14° (NNE) 3,750 7.7 -37.0°
